This is the latest recevied weather packets stored in our database for station/object KB9MLJ. If no packets are shown the sender has not sent any weather packets the latest 10 day(s).
| Time | Temp. | Humidity | Pressure | Rain* | Wind** | Luminosity | Snow |
|---|---|---|---|---|---|---|---|
| 1777301756 | 15.56° C | 84% | 1009.5 hPa | 0.25 mm | - | 90 W/m² | - |
| 1777301453 | 15.56° C | 84% | 1009.2 hPa | 0.25 mm | - | 126 W/m² | - |
| 1777301150 | 15° C | 85% | 1009.2 hPa | 0 mm | - | 140 W/m² | - |
| 1777300847 | 15° C | 86% | 1009.2 hPa | 0 mm | - | 131 W/m² | - |
| 1777300545 | 15° C | 86% | 1009.5 hPa | 0 mm | - | 118 W/m² | - |
| 1777300242 | 14.44° C | 87% | 1009.5 hPa | 0 mm | - | 103 W/m² | - |
| 1777299938 | 14.44° C | 88% | 1009.9 hPa | 0 mm | - | 103 W/m² | - |
| 1777299635 | 14.44° C | 88% | 1010.2 hPa | 0 mm | - | 97 W/m² | - |
| 1777299334 | 14.44° C | 88% | 1010.2 hPa | 0 mm | - | 58 W/m² | - |
| 1777299031 | 14.44° C | 86% | 1010.2 hPa | 0 mm | - | 50 W/m² | - |
| 1777298728 | 14.44° C | 85% | 1010.5 hPa | 0 mm | - | 49 W/m² | - |
| 1777298424 | 14.44° C | 86% | 1010.5 hPa | 0 mm | - | 29 W/m² | - |
| 1777298121 | 14.44° C | 86% | 1010.2 hPa | 0 mm | - | 31 W/m² | - |
| 1777297821 | 14.44° C | 86% | 1010.5 hPa | 0 mm | - | 88 W/m² | - |
| 1777297519 | 13.89° C | 86% | 1010.9 hPa | 0 mm | - | 78 W/m² | - |
| 1777297215 | 13.89° C | 86% | 1010.9 hPa | 0 mm | - | 61 W/m² | - |
| 1777296913 | 14.44° C | 85% | 1010.5 hPa | 0 mm | - | 58 W/m² | - |
| 1777296610 | 14.44° C | 85% | 1010.2 hPa | 0 mm | - | 70 W/m² | - |
| 1777296279 | 13.89° C | 85% | 1010.2 hPa | 0 mm | - | 68 W/m² | - |
| 1777295975 | 13.89° C | 86% | 1010.5 hPa | 0 mm | - | 71 W/m² | - |
| 1777295673 | 13.89° C | 87% | 1010.9 hPa | 0 mm | - | 73 W/m² | - |
| 1777295371 | 13.89° C | 87% | 1010.9 hPa | 0 mm | - | 55 W/m² | - |
| 1777295068 | 13.89° C | 87% | 1010.5 hPa | 0 mm | - | 95 W/m² | - |
| 1777294765 | 13.33° C | 87% | 1010.5 hPa | 0 mm | - | 142 W/m² | - |
| 1777294460 | 13.33° C | 87% | 1010.2 hPa | 0 mm | - | 141 W/m² | - |
* Rain latest hour (hover to see other rain measurements)
** Current wind speed in m/s (hover to see current wind gust speed)